User: anonymous   Login
Location: Newark
(26.8229°N, 81.7649°W)
Time: 01:19:05
(UTC+00:00)
Language:

Max Valier Satellite - Orbit

View from above orbital plane
View from above orbital plane
View from above satellite
View from above satellite

Ground track
Ground track

The orbit data is extracted from the following two-line orbital elements,

1 42778U 17036P   20093.23705991  .00000861  00000-0  40104-4 0  9993
2 42778  97.3143 148.9484 0010541 293.2886  66.7241 15.22480176154130
Epoch (UTC): 02 April 2020 05:41:21
Eccentricity: 0.0010541
inclination: 97.3143°
perigee height: 491 km
apogee height: 505 km
right ascension of ascending node: 148.9484°
argument of perigee: 293.2886°
revolutions per day: 15.22480176
mean anomaly at epoch: 66.7241°
orbit number at epoch: 15413

The dashed part of the orbit path shows where the satellite is in the earth's shadow,  

DLR